Regional Weather Roundup
Issued by NWS Goodland, KS

Home | Current Version | Previous Version | Graphics & Text | Print | Product List | Glossary On
Versions: 1 2 3 4 5 6 7 8 9 10 11 12 13 14 15 16 17 18 19 20 21 22 23 24 25 26 27 28 29 30 31 32 33 34 35 36 37 38 39 40 41 42 43 44 45 46 47 48 49 50
000
ASUS43 KGLD 281908
RWRGLD

GOODLAND FORECAST AREA HOURLY WEATHER ROUNDUP
NATIONAL WEATHER SERVICE GOODLAND KS
1200 PM MST SAT FEB 28 2015

...OFFICIAL OBSERVATIONS...

CITY           SKY/WX    TMP DP  RH WIND       PRES   REMARKS
GOODLAND KS    LGT SNOW  17  11  77 S9        30.11F
HILL CITY KS   CLOUDY    19  12  74 S10       30.26F WCI   7
IMPERIAL NEB     N/A     21   8  57 S6        30.13F
MCCOOK NEB     CLOUDY    26  11  52 SE12      30.20F WCI  16
AKRON CO       PTSUNNY   18  12  77 SE6       30.00F
BURLINGTON CO  CLOUDY    17  10  74 S9        30.05F HAZE
LIMON CO       SUNNY     16   7  67 N5        29.96F
$$

...UNOFFICIAL OBSERVATIONS...

CITY           SKY/WX    TMP DP  RH WIND       PRES   REMARKS
COLBY KS       LGT SNOW  19  16  86 S10       30.17S WCI   8
GOVE KS          N/A     18  32 100 MISG        N/A
LENORA KS        N/A     18  32 100 CALM        N/A
NORTON KS      CLOUDY    19  12  73 S7        30.24F
SHARON SPRINGS   N/A     19  14  81 S8G18       N/A
TRIBUNE KS     CLOUDY    19  18  93 SE14      30.11F WCI   6
KIT CARSON CO    N/A     18  12  77 MISG        N/A
YUMA CO          N/A     21  11  65 CALM        N/A
$$


USA.gov is the U.S. government's official web portal to all federal, state and local government web resources and services.